Regional Weather Roundup
Issued by NWS

Home | Current Version | Previous Version | Graphics & Text | Print | Product List | Glossary On
Versions: 1 2 3 4 5 6 7 8 9 10 11 12 13 14 15 16 17 18 19 20 21 22 23 24 25 26 27 28 29 30 31 32 33 34 35 36 37 38 39 40 41 42 43 44 45 46 47 48 49 50
000
ASUS43 KMKX 232211
RWRWI

WISCONSIN REGIONAL WEATHER ROUNDUP
NATIONAL WEATHER SERVICE MILWAUKEE/SULLIVAN WI
500 PM CDT SUN JUL 23 2017

NOTE: "FAIR" INDICATES FEW OR NO CLOUDS BELOW 12,000 FEET WITH NO
SIGNIFICANT WEATHER AND/OR OBSTRUCTIONS TO VISIBILITY.

WIZ001-002-006>008-014>016-023>028-232300-
NORTHWEST WISCONSIN

CITY           SKY/WX    TMP DP  RH WIND       PRES   REMARKS
SUPERIOR ARPT  NOT AVBL
ASHLAND        CLOUDY    63  59  87 NE9       30.01R
HAYWARD        CLOUDY    62  58  86 N10       30.00R
SIREN          CLOUDY    67  57  71 N12       30.00R
CUMBERLAND     CLOUDY    63  55  77 N12       29.98S
RICE LAKE      CLOUDY    66  58  74 N9        29.99R
CHETEK         CLOUDY    67  59  77 N8        29.97R
LADYSMITH      CLOUDY    65  58  78 N12       29.98R
EAU CLAIRE     PTSUNNY   71  59  65 N12G21    29.92S
MENOMONIE      PTSUNNY   70  58  65 N10       29.94S
NEW RICHMOND   CLOUDY    71  57  61 NE10      29.97S
OSCEOLA        CLOUDY    70  57  64 N9        30.00R
$$

WIZ003>005-009-010-017-018-232300-
NORTH CENTRAL WISCONSIN

CITY           SKY/WX    TMP DP  RH WIND       PRES   REMARKS
MANITOWISH WTR CLOUDY    64  62  93 NE8       29.96S
ARBOR VITAE    CLOUDY    64  59  83 N10       29.95R
WOODRUFF       CLOUDY    64  59  83 N10       29.95R
RHINELANDER    CLOUDY    66  58  75 NE8G18    29.95R
EAGLE RIVER    CLOUDY    64  55  72 N12G17    29.95R
LAND O LAKES   CLOUDY    62  56  82 N9        29.99R
PHILLIPS       CLOUDY    64  59  84 N10       29.96R
TOMAHAWK         N/A     64  57  80 N7        29.94S
MEDFORD        PTSUNNY   68  59  72 N13G20    29.93R
MERRILL        PTSUNNY   70  61  73 N18       29.91R
$$

WIZ029-030-035-036-043>047-232300-
CENTRAL WISCONSIN

CITY           SKY/WX    TMP DP  RH WIND       PRES   REMARKS
WAUSAU         MOSUNNY   76  58  53 N12G18    29.86R
MOSINEE        MOSUNNY   73  59  60 N14       29.88R
MARSHFIELD     SUNNY     76  58  53 N14G20    29.88R
STEVENS POINT  MOSUNNY   74  58  58 N9        29.86R
WAUPACA        PTSUNNY   83  59  43 N9        29.82R HX  83
WAUTOMA        PTSUNNY   78  61  55 N9        29.83R HX  80
WISC RAPIDS    SUNNY     79  58  48 NW16      29.86S HX  80
CAMP DOUGLAS   MOSUNNY   75  62  63 NW13G20   29.85R
$$

WIZ011>013-019>022-031-037>040-048>050-232300-
NORTHEAST WISCONSIN

CITY           SKY/WX    TMP DP  RH WIND       PRES   REMARKS
ANTIGO         PTSUNNY   70  59  69 N18G26    29.90R
SHAWANO        PTSUNNY   79  61  54 N16       29.82S HX  80
OCONTO         CLOUDY    71  64  81 NE6       29.83R
STURGEON BAY     N/A     70  62  76 N18G25    29.83R
GREEN BAY      PTSUNNY   79  66  64 N5        29.81S HX  81
MANITOWOC      CLOUDY    76  62  62 CALM      29.81S
APPLETON       PTSUNNY   77  57  50 NW8       29.80S
CLINTONVILLE   MOSUNNY   79  59  50 N13       29.82R HX  80
OSHKOSH        SUNNY     79  66  64 NE7       29.80S HX  81
$$

WIZ032>034-041-042-053>061-232300-
SOUTHWEST WISCONSIN

CITY           SKY/WX    TMP DP  RH WIND       PRES   REMARKS
LA CROSSE      CLOUDY    81  63  54 NW20      29.87R HX  82
SPARTA         PTSUNNY   78  60  53 N10       29.87S HX  80
VIROQUA        PTSUNNY   73  62  68 NW10      29.89S
BOSCOBEL       SUNNY     82  61  48 W13       29.85R HX  83
PRAIRIE DU CHI SUNNY     79  57  47 NW14      29.86R HX  80
PLATTEVILLE    MOSUNNY   78  64  60 NW13G18   29.85R HX  80
$$

WIZ056-057-062-063-064-067-068-232300-
SOUTH CENTRAL WISCONSIN

CITY           SKY/WX    TMP DP  RH WIND       PRES   REMARKS
REEDSBURG      MOSUNNY   79  62  55 NW14G21   29.83F HX  80
BARABOO/DELLS  SUNNY     81  56  41 NW10G18   29.83S HX  81
LONE ROCK      SUNNY     80  62  54 N16G22    29.83R HX  81
MINERAL POINT  PTSUNNY   79  63  57 NW14      29.85S HX  80
MADISON        MOSUNNY   80  61  52 N9        29.81R HX  81
MIDDLETON      MOSUNNY   82  62  50 NW15      29.83R HX  83
WATERTOWN      MOSUNNY   80  62  55 NW9G21    29.80R HX  81
MONROE         PTSUNNY   81  61  50 NW13      29.82R HX  81
JANESVILLE     PTSUNNY   81  66  61 NE8       29.80R HX  83
$$

WIZ051-052-058>065-066-070>072-232300-
SOUTHEAST WISCONSIN

CITY           SKY/WX    TMP DP  RH WIND       PRES   REMARKS
MILWAUKEE      CLOUDY    79  68  69 E9        29.79R HX  81
WAUKESHA       MOSUNNY   81  57  44 N9        29.82R HX  81
MILWAUKEE/TIMM MOSUNNY   82  55  39 NW5       29.79S HX  82
RACINE         CLOUDY    78  69  73 CALM      29.81R HX  80
KENOSHA        CLOUDY    73  67  81 W7        29.81R
FOND DU LAC    PTSUNNY   78  60  53 NE16      29.81R
SHEBOYGAN      MOSUNNY   77  64  64 NE7       29.80R
WEST BEND      PTSUNNY   79  59  50 NW6       29.80R HX  80
JUNEAU         PTSUNNY   78  63  60 CALM      29.82S
$$

LSZ147-162-232300-
LAKE SUPERIOR

STATION/POSITION TIME  TEMP    WIND        PRES    WAVE
                       AIR SEA DIR/SP/G            HT/PER
                 (UTC) (F)     (DEG/KT/KT) (MB)    (FT/S)
W MID LAKE BUOY  2150   51 48   30/  6/  6 1016.1R   2/ 5
DEVILS ISLAND    2200   56      80/  6/  8 1016.6R
SAXON HARBOR     2140   60      30/  7/  9 1015.2S
$$

LMZ867-665-643>646-232300-
LAKE MICHIGAN

STATION/POSITION TIME  TEMP    WIND        PRES    WAVE
                       AIR SEA DIR/SP/G            HT/PER
                 (UTC) (F)     (DEG/KT/KT) (MB)    (FT/S)
CHAMBERS ISLAND  2140   70     340/ 16/ 21 1009.8R
S GREEN BAY BUOY 2200   72 73   70/ 17/ 23 1009.5
N MID LAKE BUOY  2150   66 67   50/ 14/ 16 1010.0R   2/ 3
NORTHPORT PIER   2155   66     340/ 22/ 25 1010.2R
KEWAUNEE LAKESHO 2148   69      40/ 10/ 12 1009.1R
SHEBOYGAN LAKESH 2200   70      50/  6/  7 1008.5R
PORT WASHINGTON  2130   81      30/ 10/ 16 1009.5R
ATWATER BUOY     2109   74 69   70/  8/ 10 1008.8F
MILWAUKEE LAKESH 2150   73     110/  7/  7   N/A
S MID LAKE BUOY  2150   73 71   10/  6/  8 1008.5R   0
KENOSHA   LAKESH 2200   76      CALM  /  1 1008.8
$$

TC  - TEMPERATURE IN CELSIUS
VSB - VISIBILITY IN STATUTE MILES
WCI - WIND CHILL INDEX
HX  - HEAT INDEX





USA.gov is the U.S. government's official web portal to all federal, state and local government web resources and services.